This is the latest recevied weather packets stored in our database for station/object AC1IX. If no packets are shown the sender has not sent any weather packets the latest 10 day(s).
| Time | Temp. | Humidity | Pressure | Rain* | Wind** | Luminosity | Snow |
|---|---|---|---|---|---|---|---|
| 1777723031 | 6.11° C | 99% | 1012.8 hPa | 0 mm | - | 39 W/m² | - |
| 1777722728 | 6.11° C | 99% | 1012.6 hPa | 0 mm | - | 43 W/m² | - |
| 1777722121 | 6.11° C | 99% | 1012.4 hPa | 0 mm | - | 31 W/m² | - |
| 1777721818 | 6.67° C | 99% | 1012.3 hPa | 1.78 mm | - | 26 W/m² | - |
| 1777721516 | 6.67° C | 99% | 1012.5 hPa | 1.78 mm | - | 35 W/m² | - |
| 1777721213 | 6.67° C | 99% | 1012.2 hPa | 0 mm | - | 32 W/m² | - |
| 1777720911 | 6.67° C | 99% | 1012.4 hPa | 0 mm | - | 42 W/m² | - |
| 1777720608 | 6.67° C | 99% | 1012.3 hPa | 0 mm | - | 58 W/m² | - |
| 1777720305 | 6.67° C | 99% | 1012.3 hPa | 0 mm | - | 39 W/m² | - |
| 1777720003 | 6.67° C | 99% | 1012.2 hPa | 0 mm | - | 63 W/m² | - |
| 1777719700 | 6.11° C | 99% | 1012.2 hPa | 0 mm | - | 57 W/m² | - |
| 1777719398 | 6.11° C | 99% | 1012.1 hPa | 0 mm | - | 44 W/m² | - |
| 1777719095 | 6.11° C | 99% | 1012.3 hPa | 0 mm | - | 32 W/m² | - |
| 1777718792 | 6.11° C | 99% | 1011.9 hPa | 0 mm | - | 18 W/m² | - |
| 1777718489 | 6.11° C | 99% | 1011.8 hPa | 0 mm | - | 17 W/m² | - |
| 1777718187 | 6.11° C | 99% | 1012.1 hPa | 0 mm | - | 12 W/m² | - |
| 1777717885 | 6.11° C | 99% | 1011.7 hPa | 0 mm | - | 12 W/m² | - |
| 1777717581 | 6.11° C | 99% | 1011.9 hPa | 0 mm | - | 17 W/m² | - |
| 1777717278 | 6.11° C | 99% | 1012 hPa | 0 mm | - | 12 W/m² | - |
| 1777716976 | 6.11° C | 99% | 1011.9 hPa | 0 mm | - | 8 W/m² | - |
| 1777716674 | 6.11° C | 99% | 1011.9 hPa | 0 mm | - | 4 W/m² | - |
| 1777716372 | 6.11° C | 99% | 1011.7 hPa | 0 mm | - | 1 W/m² | - |
| 1777716070 | 6.11° C | 99% | 1011.7 hPa | 0 mm | - | 0 W/m² | - |
| 1777715768 | 5.56° C | 99% | 1011.6 hPa | 0 mm | - | 0 W/m² | - |
| 1777715465 | 5.56° C | 99% | 1011.7 hPa | 0 mm | - | 0 W/m² | - |
* Rain latest hour (hover to see other rain measurements)
** Current wind speed in m/s (hover to see current wind gust speed)